EW4077 Weather Reports


Display with metric or nautical units.
time (UTC)temp
F
wind
direction
speed
MPH
gust
MPH
rain 1hr
in
rain 24hr
in
rain mn
in
humidity
%
barometer
mb
20260506043055 60 45 0.0 3.0 0.00 0.03 0.03 83 1016.3
20260506041605 60 229 1.0 4.0 0.00 0.03 0.03 83 1016.0
20260506040051 60 226 0.0 5.0 0.00 0.03 0.03 81 1015.9
20260506034553 60 256 3.0 6.0 0.00 0.03 0.03 81 1015.7
20260506033049 60 257 1.0 6.0 0.00 0.03 0.03 79 1015.6
20260506031548 60 244 5.0 9.0 0.00 0.03 0.03 79 1015.2
20260506030046 61 250 5.0 9.0 0.00 0.03 0.03 78 1015.1
20260506024547 61 222 5.0 11.0 0.00 0.03 0.03 77 1014.7
20260506023101 61 249 7.0 13.0 0.00 0.03 0.03 76 1014.7
20260506021607 61 221 8.0 14.0 0.00 0.03 0.03 74 1014.6
20260506020041 62 240 9.0 15.0 0.00 0.03 0.03 74 1014.5
20260506014539 62 245 7.0 14.0 0.00 0.03 0.03 74 1014.2
20260506013039 62 257 7.0 13.0 0.00 0.03 0.03 73 1014.0
20260506011540 62 240 9.0 15.0 0.00 0.03 0.03 72 1014.1
20260506010038 63 207 8.0 13.0 0.00 0.03 0.03 71 1014.1
20260506004536 63 258 10.0 16.0 0.00 0.03 0.03 70 1014.1
20260506003038 62 242 12.0 18.0 0.00 0.03 0.03 71 1014.0
20260506001535 63 256 9.0 17.0 0.00 0.03 0.03 70 1014.0
20260506000031 63 257 11.0 17.0 0.00 0.03 0.03 72 1014.1
20260505234529 62 254 14.0 18.0 0.00 0.03 0.03 70 1014.0
20260505233028 62 240 13.0 18.0 0.00 0.03 0.03 72 1014.1
20260505231544 62 257 9.0 19.0 0.00 0.03 0.03 70 1014.1
20260505230027 62 214 13.0 20.0 0.00 0.03 0.03 71 1014.1
20260505224522 63 187 11.0 17.0 0.00 0.03 0.03 70 1014.2
20260505223022 63 218 6.0 16.0 0.00 0.03 0.03 69 1014.4
20260505221518 63 201 8.0 15.0 0.00 0.03 0.03 68 1014.5
20260505220019 63 260 8.0 15.0 0.00 0.03 0.03 68 1014.6
20260505214514 64 180 7.0 14.0 0.00 0.03 0.03 68 1014.6
20260505213016 63 217 7.0 17.0 0.00 0.03 0.03 69 1014.8
20260505211511 63 221 8.0 15.0 0.00 0.03 0.03 68 1014.9
20260505210011 63 207 7.0 15.0 0.00 0.03 0.03 67 1014.9
20260505204508 63 212 7.0 11.0 0.00 0.03 0.03 67 1014.9
20260505203006 62 229 10.0 15.0 0.00 0.03 0.03 67 1014.9
20260505201507 63 235 6.0 13.0 0.00 0.03 0.03 68 1014.9
20260505200005 63 267 7.0 12.0 0.00 0.03 0.03 67 1015.0
20260505194502 63 207 6.0 10.0 0.00 0.03 0.03 65 1015.1
20260505193001 63 206 5.0 12.0 0.00 0.03 0.03 67 1015.2
20260505191611 63 196 6.0 11.0 0.00 0.03 0.03 67 1015.3
20260505190057 62 209 6.0 10.0 0.00 0.03 0.03 67 1015.5
20260505184554 62 250 4.0 11.0 0.00 0.03 0.03 68 1015.4
20260505183053 61 257 9.0 15.0 0.00 0.03 0.03 69 1015.4
20260505181551 61 195 6.0 12.0 0.00 0.03 0.03 71 1015.3
20260505180052 61 240 5.0 14.0 0.00 0.03 0.03 72 1015.4
20260505174547 61 248 9.0 14.0 0.00 0.03 0.03 71 1015.1
20260505173044 61 240 7.0 13.0 0.00 0.03 0.03 70 1015.1
20260505171545 61 249 7.0 14.0 0.00 0.03 0.03 72 1014.9
20260505170100 61 272 7.0 11.0 0.00 0.03 0.03 73 1014.7
20260505164541 60 267 8.0 12.0 0.00 0.03 0.03 72 1014.7
20260505163037 60 242 7.0 10.0 0.00 0.03 0.03 73 1014.4
20260505161535 60 244 5.0 13.0 0.00 0.03 0.03 74 1014.3
20260505153036 60 269 6.0 11.0 0.00 0.03 0.03 74 1014.2
20260505151540 60 221 5.0 11.0 0.00 0.03 0.03 73 1014.1
20260505124513 58 269 2.0 4.0 0.00 0.03 0.03 80 1013.5
20260505123012 58 280 2.0 4.0 0.00 0.03 0.03 80 1013.5
20260505121514 58 262 1.0 4.0 0.00 0.03 0.03 81 1013.4
20260505120012 58 295 3.0 7.0 0.00 0.03 0.03 81 1013.3
20260505114514 58 300 2.0 4.0 0.00 0.03 0.03 82 1013.2
20260505113016 58 317 2.0 5.0 0.00 0.03 0.03 81 1013.3
20260505111508 58 247 0.0 1.0 0.00 0.03 0.03 82 1013.4
20260505101503 57 304 1.0 3.0 0.01 0.03 0.03 88 1013.4
20260505100002 56 257 2.0 5.0 0.01 0.03 0.03 90 1013.6
20260505094557 57 241 3.0 5.0 0.01 0.02 0.02 92 1013.8
20260505093057 56 101 0.0 1.0 0.02 0.02 0.02 91 1013.8
20260505091552 57 31 0.0 1.0 0.02 0.02 0.02 91 1014.0
20260505084552 57 227 1.0 3.0 0.01 0.01 0.01 89 1014.3
20260505083056 57 107 0.0 3.0 0.00 0.00 0.00 89 1014.4
20260505081548 57 96 1.0 3.0 0.00 0.00 0.00 86 1014.4
20260505080043 58 153 1.0 4.0 0.00 0.00 0.00 85 1014.6
20260505074541 58 74 1.0 3.0 0.00 0.00 0.00 85 1014.7
20260505073041 58 127 1.0 2.0 0.00 0.00 0.00 84 1014.7
20260505071538 58 88 1.0 3.0 0.00 0.00 0.00 84 1014.7
20260505070042 58 95 1.0 3.0 0.00 0.00 0.00 84 1014.7
20260505064534 58 93 3.0 5.0 0.00 0.00 0.00 84 1014.8
20260505063039 58 94 2.0 5.0 0.00 0.00 0.00 85 1014.7
20260505061539 58 145 2.0 5.0 0.00 0.00 0.00 86 1014.8
20260505060034 59 118 2.0 7.0 0.00 0.00 0.00 85 1014.9
20260505054538 59 92 2.0 3.0 0.00 0.00 0.00 83 1014.9
20260505053040 59 144 1.0 2.0 0.00 0.00 0.00 83 1014.8
20260505051534 59 136 1.0 2.0 0.00 0.00 0.00 82 1015.0